Home   Weather   Southend-on-Sea   Past weeks
Flag for United Kingdom

Past Weather in Southend-on-Sea, England, United Kingdom — Yesterday and Last 2 Weeks

Now
43 °F

Fog.


Feels Like: 43 °F
Forecast: 44 / 40 °F
Wind: 2 mph from Northwest

Location: Southend Airport-On-Sea

Current Time: Jan 23, 2020 at 12:21:18 pm

Latest Report: Jan 23, 2020 at 11:50 am


Visibility: 2 mi

Pressure: 30.48 "Hg

Humidity: 100%

Dew Point: 43 °F

Location of Southend-on-SeaLocation

Past Weather in Southend-on-Sea — Graph

°F

Southend-on-Sea Temperature Yesterday

Maximum temperature yesterday: 43 °F (at 11:50 am)
Minimum temperature yesterday: 37 °F (at 3:50 am)
Average temperature yesterday: 41 °F

High & Low Weather Summary for the Past Weeks

 TemperatureHumidityPressure
High54 °F (Jan 8, 11:20 am)100% (Jan 8, 7:20 pm)30.98 "Hg (Jan 8, 7:20 pm)
Low27 °F (Jan 21, 4:20 am)66% (Jan 10, 3:20 pm)29.36 "Hg (Jan 14, 1:50 pm)
Average44 °F89%30.19 "Hg
* Reported Jan 8 11:20 am — Jan 23 11:20 am, Southend-on-Sea. Weather by CustomWeather, © 2020

Note: Actual official high and low records may vary slightly from our data, if they occured in-between our weather recording intervals... More about our weather records

Southend-on-Sea Weather History for the Previous 24 Hours

Scroll right to see more
 ConditionsComfort  
Time TempWeatherWind HumidityBarometerVisibility
11:20 am
Thu, Jan 23
45 °FFog.No wind100%30.48 "Hg2 mi
10:50 am45 °FFog.2 mph100%30.48 "Hg1 mi
10:20 am43 °FFog.2 mph100%30.48 "Hg1 mi
9:50 am43 °FFog.No wind100%30.51 "Hg1 mi
9:20 am43 °FFog.No wind100%30.51 "Hg1 mi
8:50 am43 °FFog.No wind100%30.51 "Hg1 mi
8:20 am43 °FFog.No wind100%30.51 "Hg1 mi
7:50 am43 °FFog.No wind100%30.51 "Hg1 mi
7:20 am43 °FFog.No wind100%30.51 "Hg1 mi
6:50 am43 °FFog.No wind100%30.51 "Hg1 mi
6:20 am43 °FFog.No wind100%30.51 "Hg2 mi
5:50 am43 °FFog.2 mph100%30.51 "Hg1 mi
5:20 am43 °FFog.1 mph100%30.51 "Hg1 mi
4:50 am43 °FFog.2 mph100%30.51 "Hg1 mi
4:20 am43 °FFog.2 mph100%30.54 "Hg1 mi
3:50 am43 °FFog.2 mph100%30.54 "Hg1 mi
3:20 am43 °FFog.1 mph100%30.54 "Hg1 mi
2:20 am43 °FFog.No wind100%30.57 "Hg1 mi
1:50 am43 °FFog.3 mph100%30.57 "Hg1 mi
1:20 am43 °FFog.3 mph100%30.57 "Hg1 mi
12:20 am43 °FFog.No wind100%30.60 "Hg1 mi
11:50 pm
Wed, Jan 22
43 °FFog.2 mph100%30.60 "Hg1 mi
11:20 pm43 °FFog.2 mph100%30.60 "Hg1 mi
10:50 pm43 °FFog.1 mph100%30.60 "Hg1 mi
10:20 pm43 °FFog.No wind100%30.60 "Hg1 mi
9:50 pm43 °FFog.3 mph100%30.60 "Hg1 mi
9:20 pm43 °FFog.No wind100%30.60 "Hg1 mi
8:50 pm43 °FFog.No wind100%30.60 "Hg1 mi
8:20 pm43 °FFog.2 mph100%30.60 "Hg1 mi
7:50 pm43 °FFog.No wind100%30.63 "Hg1 mi
7:20 pm43 °FFog.No wind100%30.60 "Hg1 mi
6:50 pm43 °FFog.No wind100%30.60 "Hg1 mi
6:20 pm43 °FFog.No wind100%30.60 "Hg1 mi
5:50 pm43 °FFog.No wind100%30.60 "Hg2 mi
5:20 pm43 °FFog.No wind100%30.60 "Hg1 mi
4:50 pm43 °FFog.No wind100%30.60 "Hg1 mi
4:20 pm43 °FFog.2 mph100%30.60 "Hg2 mi
3:50 pm43 °FFog.2 mph100%30.60 "Hg2 mi
3:20 pm43 °FFog.3 mph100%30.60 "Hg2 mi
2:50 pm43 °FFog.2 mph100%30.60 "Hg2 mi
2:20 pm43 °FFog.2 mph100%30.60 "Hg2 mi
1:50 pm43 °FFog.No wind100%30.60 "Hg2 mi
1:20 pm43 °FFog.No wind100%30.63 "Hg2 mi
12:50 pm43 °FFog.2 mph100%30.63 "Hg2 mi
12:20 pm43 °FFog.3 mph100%30.63 "Hg1 mi
Weather by CustomWeather, © 2020

See weather overview

Advertising